This is the latest recevied weather packets stored in our database for station/object OK0EK-11. If no packets are shown the sender has not sent any weather packets the latest 10 day(s).
| Time | Temp. | Humidity | Pressure | Rain* | Wind** | Luminosity | Snow |
|---|---|---|---|---|---|---|---|
| 1778311901 | 5.56° C | 89% | 1020.5 hPa | - | - | - | - |
| 1778311299 | 5.56° C | 90% | 1020.5 hPa | - | - | - | - |
| 1778310700 | 5.56° C | 89% | 1020.4 hPa | - | - | - | - |
| 1778310101 | 6.11° C | 90% | 1020.3 hPa | - | - | - | - |
| 1778309503 | 5.56° C | 91% | 1020.1 hPa | - | - | - | - |
| 1778308904 | 5.56° C | 93% | 1020.2 hPa | - | - | - | - |
| 1778308305 | 5.56° C | 92% | 1019.9 hPa | - | - | - | - |
| 1778307719 | 5° C | 91% | 1020 hPa | - | - | - | - |
| 1778307706 | 5° C | 91% | 1020 hPa | - | - | - | - |
| 1778307107 | 5.56° C | 91% | 1020.1 hPa | - | - | - | - |
| 1778306507 | 5° C | 90% | 1020 hPa | - | - | - | - |
| 1778305909 | 5° C | 91% | 1019.9 hPa | - | - | - | - |
| 1778305309 | 5° C | 92% | 1019.8 hPa | - | - | - | - |
| 1778304727 | 5° C | 95% | 1019.9 hPa | - | - | - | - |
| 1778304709 | 5° C | 95% | 1019.9 hPa | - | - | - | - |
| 1778304110 | 4.44° C | 98% | 1019.8 hPa | - | - | - | - |
| 1778303510 | 3.89° C | 99% | 1019.8 hPa | - | - | - | - |
| 1778302910 | 3.89° C | 100% | 1019.9 hPa | - | - | - | - |
| 1778302311 | 3.89° C | 100% | 1019.7 hPa | - | - | - | - |
| 1778301712 | 3.89° C | 100% | 1019.8 hPa | - | - | - | - |
| 1778301114 | 3.89° C | 100% | 1019.6 hPa | - | - | - | - |
| 1778300515 | 3.89° C | 100% | 1019.8 hPa | - | - | - | - |
| 1778299915 | 3.89° C | 100% | 1019.8 hPa | - | - | - | - |
| 1778299316 | 3.89° C | 100% | 1019.7 hPa | - | - | - | - |
| 1778298717 | 3.33° C | 100% | 1019.7 hPa | - | - | - | - |
* Rain since midnight (hover to see other rain measurements)
** Current wind speed in m/s (hover to see current wind gust speed)